Погода в Мутнице

Россия / Республика Коми     59°28′55″N   49°31′00″E
темп.,
°C
ветер,
м/с
пор.,
м/с
влажн.,
%
обл.,
%
осадки,
мм/ч
давл.,
гПа
погр.,
м
10 мая, пн
пн1000:00+13ююв2987100 0.4 1013235
03:00+12ююв259370 0.8 1015124
06:00+13ююз3892100 0.2 1017312
09:00+14юз2887100 0.8 1018663
12:00+9ссз4793100 1.7 1022358
15:00+8ссз3794100 2.3 1024419
18:00+7с3793100 0.3 1026413
21:00+7с3793100 0.3 1028415
11 мая, вт
вт1100:00+5с259635 0.0 1029174
03:00+4ссв249795 0.0 1030102
06:00+6ссв248598 0.0 1031273
09:00+11ссв235377 0.0 1031635
12:00+16ссв223496 0.0 1030951
15:00+17с1231100 0.0 10301105
18:00+15с115197 0.0 103016
21:00+10св1160100 0.0 103110
12 мая, ср
ср1200:00+9всв016515 0.0 103110
03:00+8в11695 0.0 103210
06:00+12св115939 0.0 1032100
09:00+18юв11415 0.0 1031607
12:00+22ю11365 0.0 10301190
15:00+22юз11355 0.0 10291463
18:00+20юз114947 0.0 102816
21:00+14юз11595 0.0 102911
13 мая, чт
чт1300:00+13ююз00610 0.0 102910
03:00+12ююз01610 0.0 103010
06:00+16юв00540 0.0 102975
09:00+22ю11423 0.0 1029570
12:00+25юз233814 0.0 10282082
15:00+22ююз2447100 0.0 1026403
18:00+21в115698 0.0 102516
21:00+18ю236326 0.0 102558
14 мая, пт
пт1400:00+15ююз237491 0.0 102545
03:00+14ююз228228 0.0 102528
06:00+16ююз266788 0.0 1024190
09:00+22ююз464811 0.0 1023732
12:00+25ююз593867 0.0 10222107
15:00+25юз583894 0.0 10212744
18:00+21зюз245698 0.0 102075
21:00+17ююз387534 0.3 1019157